• en France
  • Liste des pays
  • À 7 jours
  • Température de l'eau
  • Carte satellitaire
  • Carte météo
  • Widgets météo
  • user-avatar
    Se connecter

    Météo par heure à Nakhitchevan

    Ce jour, 16 Octobre, Mardi

    Heure Température Précipitation Vent Pression Humidité
    00:00 +19°C° 0 mm 1 m/s 691 mmHg 54%
    01:00 +19°C° 0 mm 1 m/s 692 mmHg 56%
    02:00 +18°C° 0 mm 1 m/s 692 mmHg 58%
    03:00 +18°C° 0 mm 1 m/s 691 mmHg 61%
    04:00 +18°C° 0 mm 1 m/s 692 mmHg 62%
    05:00 +16°C° 0 mm 1 m/s 692 mmHg 63%
    06:00 +16°C° 0 mm 1 m/s 692 mmHg 63%
    07:00 +18°C° 0 mm 1 m/s 692 mmHg 58%
    08:00 +20°C° 0 mm 1 m/s 693 mmHg 53%
    09:00 +21°C° 0 mm 1 m/s 693 mmHg 48%
    10:00 +21°C° 0 mm 2 m/s 693 mmHg 44%
    11:00 +23°C° 0 mm 2 m/s 693 mmHg 41%
    12:00 +24°C° 0 mm 2 m/s 693 mmHg 37%
    13:00 +24°C° 0 mm 2 m/s 693 mmHg 36%
    14:00 +24°C° 0 mm 2 m/s 692 mmHg 35%
    15:00 +25°C° 0 mm 3 m/s 692 mmHg 33%
    16:00 +24°C° 0 mm 2 m/s 692 mmHg 37%
    17:00 +23°C° 0 mm 2 m/s 692 mmHg 40%
    18:00 +20°C° 0 mm 2 m/s 692 mmHg 43%
    19:00 +20°C° 0 mm 2 m/s 692 mmHg 46%
    20:00 +19°C° 0 mm 2 m/s 692 mmHg 49%
    21:00 +18°C° 0 mm 2 m/s 692 mmHg 52%
    22:00 +19°C° 0 mm 1 m/s 692 mmHg 54%
    23:00 +18°C° 0 mm 1 m/s 692 mmHg 56%

    Demain, 17 Octobre, Mercredi

    Heure Température Précipitation Vent Pression Humidité
    00:00 +18°C° 0 mm 1 m/s 692 mmHg 58%
    01:00 +16°C° 0 mm 1 m/s 692 mmHg 60%
    02:00 +16°C° 0 mm 1 m/s 692 mmHg 61%
    03:00 +16°C° 0 mm 1 m/s 692 mmHg 63%
    04:00 +15°C° 0 mm 1 m/s 692 mmHg 64%
    05:00 +15°C° 0 mm 1 m/s 692 mmHg 65%
    06:00 +14°C° 0 mm 1 m/s 692 mmHg 66%
    07:00 +16°C° 0 mm 1 m/s 692 mmHg 60%
    08:00 +18°C° 0 mm 1 m/s 692 mmHg 55%
    09:00 +19°C° 0 mm 1 m/s 693 mmHg 49%
    10:00 +20°C° 0 mm 1 m/s 693 mmHg 45%
    11:00 +20°C° 0 mm 2 m/s 692 mmHg 41%
    12:00 +21°C° 0 mm 2 m/s 692 mmHg 37%
    13:00 +23°C° 0 mm 2 m/s 692 mmHg 36%
    14:00 +23°C° 0 mm 2 m/s 692 mmHg 35%
    15:00 +24°C° 0 mm 2 m/s 691 mmHg 33%
    16:00 +23°C° 0 mm 2 m/s 691 mmHg 37%
    17:00 +21°C° 0 mm 2 m/s 691 mmHg 40%
    18:00 +20°C° 0 mm 2 m/s 691 mmHg 43%
    19:00 +20°C° 0 mm 1 m/s 691 mmHg 46%
    20:00 +19°C° 0 mm 1 m/s 691 mmHg 49%
    21:00 +19°C° 0 mm 1 m/s 691 mmHg 52%
    22:00 +18°C° 0 mm 1 m/s 691 mmHg 54%
    23:00 +18°C° 0 mm 1 m/s 691 mmHg 56%

    Après-demain, 18 Octobre, Jeudi

    Heure Température Précipitation Vent Pression Humidité
    00:00 +16°C° 0 mm 1 m/s 691 mmHg 58%
    01:00 +16°C° 0 mm 1 m/s 691 mmHg 60%
    02:00 +15°C° 0 mm 1 m/s 690 mmHg 61%
    03:00 +15°C° 0 mm 1 m/s 690 mmHg 63%
    04:00 +15°C° 0 mm 1 m/s 690 mmHg 64%
    05:00 +13°C° 0 mm 0 m/s 690 mmHg 65%
    06:00 +13°C° 0 mm 0 m/s 690 mmHg 66%
    07:00 +14°C° 0 mm 0 m/s 690 mmHg 59%
    08:00 +16°C° 0 mm 0 m/s 690 mmHg 51%
    09:00 +18°C° 0 mm 0 m/s 691 mmHg 44%
    10:00 +21°C° 0 mm 1 m/s 691 mmHg 41%
    11:00 +22°C° 0 mm 1 m/s 690 mmHg 38%
    12:00 +23°C° 0 mm 1 m/s 690 mmHg 34%
    13:00 +24°C° 0 mm 1 m/s 690 mmHg 33%
    14:00 +24°C° 0 mm 2 m/s 690 mmHg 32%
    15:00 +25°C° 0 mm 2 m/s 690 mmHg 30%
    16:00 +23°C° 0 mm 1 m/s 690 mmHg 33%
    17:00 +22°C° 0 mm 1 m/s 690 mmHg 36%
    18:00 +21°C° 0 mm 1 m/s 690 mmHg 39%
    19:00 +20°C° 0 mm 1 m/s 690 mmHg 41%
    20:00 +20°C° 0 mm 1 m/s 690 mmHg 42%
    21:00 +19°C° 0 mm 1 m/s 690 mmHg 44%
    22:00 +19°C° 0 mm 1 m/s 690 mmHg 45%
    23:00 +18°C° 0 mm 1 m/s 690 mmHg 46%

    19 Octobre, Vendredi

    Heure Température Précipitation Vent Pression Humidité
    00:00 +18°C° 0 mm 1 m/s 690 mmHg 47%
    01:00 +16°C° 0 mm 1 m/s 690 mmHg 48%
    02:00 +16°C° 0 mm 1 m/s 690 mmHg 48%
    03:00 +16°C° 0 mm 1 m/s 690 mmHg 49%
    04:00 +15°C° 0 mm 1 m/s 690 mmHg 49%
    05:00 +15°C° 0 mm 1 m/s 690 mmHg 50%
    06:00 +15°C° 0 mm 1 m/s 690 mmHg 50%
    07:00 +16°C° 0 mm 1 m/s 690 mmHg 44%
    08:00 +19°C° 0 mm 1 m/s 691 mmHg 38%
    09:00 +21°C° 0 mm 1 m/s 691 mmHg 32%
    10:00 +22°C° 0 mm 1 m/s 691 mmHg 30%
    11:00 +24°C° 0 mm 1 m/s 691 mmHg 28%
    12:00 +25°C° 0 mm 1 m/s 691 mmHg 26%
    13:00 +25°C° 0 mm 1 m/s 690 mmHg 25%
    14:00 +25°C° 0 mm 2 m/s 690 mmHg 24%
    15:00 +26°C° 0 mm 2 m/s 690 mmHg 24%
    16:00 +24°C° 0 mm 1 m/s 690 mmHg 27%
    17:00 +23°C° 0 mm 1 m/s 690 mmHg 30%
    18:00 +22°C° 0 mm 1 m/s 690 mmHg 33%
    19:00 +21°C° 0 mm 1 m/s 690 mmHg 35%
    20:00 +21°C° 0 mm 1 m/s 690 mmHg 37%
    21:00 +20°C° 0 mm 1 m/s 690 mmHg 39%
    22:00 +20°C° 0 mm 1 m/s 690 mmHg 40%
    23:00 +19°C° 0 mm 1 m/s 690 mmHg 41%

    20 Octobre, Samedi

    Heure Température Précipitation Vent Pression Humidité
    00:00 +19°C° 0 mm 1 m/s 690 mmHg 42%
    01:00 +18°C° 0 mm 1 m/s 690 mmHg 43%
    02:00 +18°C° 0 mm 1 m/s 689 mmHg 43%
    03:00 +18°C° 0 mm 1 m/s 689 mmHg 43%
    04:00 +18°C° 0 mm 1 m/s 689 mmHg 44%
    05:00 +16°C° 0 mm 1 m/s 689 mmHg 45%
    06:00 +15°C° 0 mm 0 m/s 689 mmHg 47%
    07:00 +19°C° 0 mm 1 m/s 689 mmHg 41%
    08:00 +20°C° 0 mm 1 m/s 690 mmHg 36%
    09:00 +22°C° 0 mm 1 m/s 690 mmHg 31%
    10:00 +23°C° 0 mm 1 m/s 690 mmHg 30%
    11:00 +24°C° 0 mm 1 m/s 690 mmHg 28%
    12:00 +25°C° 0 mm 1 m/s 689 mmHg 27%
    13:00 +26°C° 0 mm 2 m/s 689 mmHg 26%
    14:00 +26°C° 0 mm 2 m/s 689 mmHg 26%
    15:00 +26°C° 0 mm 2 m/s 688 mmHg 25%
    16:00 +25°C° 0 mm 1 m/s 688 mmHg 28%
    17:00 +24°C° 0 mm 1 m/s 688 mmHg 30%
    18:00 +23°C° 0 mm 1 m/s 688 mmHg 33%
    19:00 +23°C° 0.2 mm 1 m/s 688 mmHg 34%
    20:00 +22°C° 0.2 mm 1 m/s 689 mmHg 36%
    21:00 +22°C° 0.2 mm 1 m/s 689 mmHg 37%
    22:00 +21°C° 0 mm 1 m/s 688 mmHg 38%
    23:00 +21°C° 0 mm 1 m/s 688 mmHg 39%

    21 Octobre, Dimanche

    Heure Température Précipitation Vent Pression Humidité
    00:00 +21°C° 0 mm 1 m/s 688 mmHg 40%
    01:00 +20°C° 0.1 mm 1 m/s 688 mmHg 42%
    02:00 +20°C° 0.1 mm 1 m/s 688 mmHg 44%
    03:00 +19°C° 0.1 mm 1 m/s 687 mmHg 45%
    04:00 +19°C° 0 mm 1 m/s 687 mmHg 46%
    05:00 +19°C° 0 mm 1 m/s 687 mmHg 47%
    06:00 +19°C° 0 mm 1 m/s 687 mmHg 49%
    07:00 +20°C° 0 mm 1 m/s 688 mmHg 46%
    08:00 +21°C° 0 mm 1 m/s 688 mmHg 43%
    09:00 +22°C° 0 mm 1 m/s 688 mmHg 40%
    10:00 +23°C° 0 mm 2 m/s 688 mmHg 39%
    11:00 +24°C° 0 mm 2 m/s 687 mmHg 37%
    12:00 +25°C° 0 mm 2 m/s 687 mmHg 36%
    13:00 +25°C° 0.1 mm 2 m/s 687 mmHg 35%
    14:00 +25°C° 0.1 mm 2 m/s 687 mmHg 34%
    15:00 +26°C° 0.1 mm 3 m/s 686 mmHg 34%
    16:00 +25°C° 0.3 mm 2 m/s 686 mmHg 38%
    17:00 +23°C° 0.3 mm 2 m/s 686 mmHg 41%
    18:00 +21°C° 0.3 mm 2 m/s 686 mmHg 45%
    19:00 +22°C° 0.2 mm 1 m/s 687 mmHg 47%
    20:00 +21°C° 0.2 mm 1 m/s 687 mmHg 48%
    21:00 +21°C° 0.2 mm 1 m/s 687 mmHg 50%
    22:00 +20°C° 0.2 mm 1 m/s 687 mmHg 51%
    23:00 +20°C° 0.2 mm 1 m/s 687 mmHg 52%
    Voir plus